Regional Weather Roundup
Issued by NWS

Home | Current Version | Previous Version | Graphics & Text | Print | Product List | Glossary On
Versions: 1 2 3 4 5 6 7 8 9 10 11 12 13 14 15 16 17 18 19 20 21 22 23 24 25 26 27 28 29 30 31 32 33 34 35 36 37 38 39 40 41 42 43 44 45 46 47 48 49 50
000
ASUS43 KFSD 110310
RWRSD

WEATHER ROUNDUP FOR SOUTH DAKOTA
NATIONAL WEATHER SERVICE SIOUX FALLS SD
900 PM CST WED FEB 10 2016

NOTE: "FAIR" INDICATES FEW OR NO CLOUDS BELOW 12,000 FEET WITH NO
SIGNIFICANT WEATHER AND/OR OBSTRUCTIONS TO VISIBILITY.


SDZ001>005-009-010-012>017-110400-
NORTHWEST AND NORTH CENTRAL SOUTH DAKOTA

CITY           SKY/WX    TMP DP  RH WIND       PRES   REMARKS
BUFFALO          N/A     32  28  85 NE3       30.05S
FAITH            N/A     29  23  78 NE10      30.11S WCI  20
MOBRIDGE       CLOUDY    21  15  78 E6        30.15R WCI  13
$$

SDZ012>016-024>037-041>051-057-063-072>074-110400-
SOUTHWEST AND SOUTH CENTRAL SOUTH DAKOTA

CITY           SKY/WX    TMP DP  RH WIND       PRES   REMARKS
RAPID CTY ARPT CLEAR     33  28  81 NE14      30.12R WCI  23
PIERRE         CLOUDY    26  22  84 E8        30.16R WCI  18
CUSTER         CLOUDY    38  19  46 MISG      30.09R
ELLSWORTH AFB  CLEAR     35  29  80 E9        30.11R WCI  28
PHILIP         CLOUDY    29  25  85 SE6       30.16R WCI  23
PINE RIDGE     CLOUDY    32  25  75 E7        30.10R WCI  26
SPEARFISH      FAIR      37  27  65 CALM      30.11F
WINNER         CLOUDY    32  25  75 N15       30.13R WCI  22
$$

SDZ004>011-016>023-039-040-110400-
NORTHEAST SOUTH DAKOTA

CITY           SKY/WX    TMP DP  RH WIND       PRES   REMARKS
ABERDEEN       CLOUDY    14   8  77 NE9       30.22R WCI   2
WATERTOWN      CLOUDY    10   4  76 E8        30.17S WCI  -2
BROOKINGS      FLURRIES  10   5  80 NE9       30.17S WCI  -3
SISSETON         N/A     11   6  81 N5        30.25R WCI   3
$$

SDZ017-020-022-023-036>040-048>070-110400-
SOUTHEAST SOUTH DAKOTA

CITY           SKY/WX    TMP DP  RH WIND       PRES   REMARKS
SIOUX FALLS    CLOUDY    13   7  77 E10       30.17R WCI   0
HURON          CLOUDY    17  11  77 E7        30.21R WCI   8
CHAMBERLAIN    CLOUDY    24  21  88 NE7       30.16R WCI  16
MITCHELL       CLOUDY    20  14  77 E6        30.20R WCI  12
YANKTON        CLOUDY    18  12  79 E10       30.18R WCI   6
$$

ABBREVIATIONS USED IN REMARKS
   TC - TEMPERATURE IN CELSIUS
  WCI - WIND CHILL INDEX
   HX - HEAT INDEX
  VSB - VISIBILITY




USA.gov is the U.S. government's official web portal to all federal, state and local government web resources and services.